FW1924 Weather Reports


Display with metric or nautical units.
time (UTC)temp
F
wind
direction
speed
MPH
gust
MPH
rain 1hr
in
rain 24hr
in
rain mn
in
humidity
%
barometer
mb
20260502220020 76 355 4.0 11.0 0.00 0.00 0.00 16 1010.7
20260502214510 76 139 3.0 13.0 0.00 0.00 0.00 13 1010.9
20260502213009 77 190 5.0 13.0 0.00 0.00 0.00 16 1011.2
20260502211607 76 119 9.0 15.0 0.00 0.00 0.00 16 1011.5
20260502210054 76 69 4.0 11.0 0.00 0.00 0.00 16 1011.8
20260502204541 76 186 6.0 12.0 0.00 0.00 0.00 14 1012.1
20260502203033 75 122 8.0 14.0 0.00 0.00 0.00 17 1012.3
20260502201541 75 161 5.0 12.0 0.00 0.00 0.00 18 1012.4
20260502200027 74 115 7.0 14.0 0.00 0.00 0.00 19 1012.5
20260502194516 74 87 8.0 15.0 0.00 0.00 0.00 16 1012.8
20260502193005 73 103 4.0 19.0 0.00 0.00 0.00 19 1013.0
20260502191502 72 95 9.0 18.0 0.00 0.00 0.00 18 1013.2
20260502190053 72 161 12.0 21.0 0.00 0.00 0.00 17 1013.6
20260502184543 72 127 14.0 21.0 0.00 0.00 0.00 17 1013.7
20260502183035 72 144 7.0 17.0 0.00 0.00 0.00 20 1013.9
20260502181531 72 137 7.0 17.0 0.00 0.00 0.00 20 1014.1
20260502163018 64 183 8.0 16.0 0.00 0.00 0.00 26 1014.9
20260502161601 63 175 7.0 14.0 0.00 0.00 0.00 28 1014.9
20260502151605 56 161 0.0 10.0 0.00 0.00 0.00 45 1015.1
20260502123017 47 186 1.0 4.0 0.00 0.00 0.00 42 1014.9
20260502121609 47 209 0.0 5.0 0.00 0.00 0.00 42 1015.0
20260502120113 47 218 4.0 7.0 0.00 0.00 0.00 41 1015.0
20260502114635 47 216 4.0 8.0 0.00 0.00 0.00 41 1014.9
20260502113051 47 219 3.0 5.0 0.00 0.00 0.00 42 1015.0
20260502111544 48 206 5.0 10.0 0.00 0.00 0.00 45 1015.0
20260502110035 48 217 5.0 9.0 0.00 0.00 0.00 46 1015.0
20260502104526 47 196 5.0 10.0 0.00 0.00 0.00 46 1014.9
20260502103026 47 221 3.0 8.0 0.00 0.00 0.00 44 1015.0
20260502101519 47 190 4.0 7.0 0.00 0.00 0.00 43 1015.0
20260502071505 45 202 4.0 7.0 0.00 0.00 0.00 45 1015.5
20260502070110 45 203 1.0 4.0 0.00 0.00 0.00 46 1015.4
20260502064623 45 236 2.0 3.0 0.00 0.00 0.00 45 1015.4
20260502063104 46 250 0.0 2.0 0.00 0.00 0.00 46 1015.3
20260502061548 46 250 0.0 3.0 0.00 0.00 0.00 44 1015.2
20260502060043 47 251 2.0 4.0 0.00 0.00 0.00 43 1015.0
20260502054527 47 251 3.0 7.0 0.00 0.00 0.00 43 1015.0
20260502053018 48 256 3.0 6.0 0.00 0.00 0.00 42 1014.9
20260502051510 49 256 3.0 6.0 0.00 0.00 0.00 42 1014.9
20260502050004 49 257 3.0 6.0 0.00 0.00 0.00 41 1015.1
20260502044607 50 262 2.0 4.0 0.00 0.00 0.00 39 1015.1
20260502043125 51 268 2.0 6.0 0.00 0.00 0.00 38 1015.0
20260502041559 52 270 3.0 7.0 0.00 0.00 0.00 37 1014.9
20260502040047 52 266 2.0 7.0 0.00 0.00 0.00 36 1014.8
20260502034540 52 274 2.0 6.0 0.00 0.00 0.00 35 1014.6
20260502033032 53 270 2.0 7.0 0.00 0.00 0.00 36 1014.5
20260502031523 53 275 3.0 7.0 0.00 0.00 0.00 34 1014.2
20260502030024 54 277 3.0 8.0 0.00 0.00 0.00 34 1014.0
20260502024517 55 284 3.0 7.0 0.00 0.00 0.00 33 1013.7
20260502023007 56 259 3.0 9.0 0.00 0.00 0.00 32 1013.7
20260502021559 57 271 1.0 8.0 0.00 0.00 0.00 33 1013.6
20260502020051 58 282 3.0 10.0 0.00 0.00 0.00 31 1013.5
20260502014504 59 298 4.0 9.0 0.00 0.00 0.00 30 1013.4
20260502013059 60 313 4.0 12.0 0.00 0.00 0.00 28 1013.4
20260502011556 62 313 4.0 10.0 0.00 0.00 0.00 29 1013.3
20260502010040 63 321 4.0 13.0 0.00 0.00 0.00 27 1013.4
20260502004540 63 325 3.0 12.0 0.00 0.00 0.00 28 1013.3
20260502003036 63 5 6.0 12.0 0.00 0.00 0.00 28 1013.4
20260502001528 64 340 5.0 12.0 0.00 0.00 0.00 27 1013.4
20260502000023 64 296 3.0 12.0 0.00 0.00 0.00 27 1013.6
20260501234514 64 350 7.0 15.0 0.00 0.00 0.00 27 1013.5
20260501233003 64 319 8.0 14.0 0.00 0.00 0.00 26 1013.5
20260501231609 65 321 7.0 15.0 0.00 0.00 0.00 27 1013.7
20260501230148 66 302 7.0 15.0 0.00 0.00 0.00 25 1013.6
20260501224546 67 345 7.0 13.0 0.00 0.00 0.00 24 1013.7
20260501221530 67 328 3.0 12.0 0.00 0.00 0.00 25 1014.0